Regional Weather Roundup
Issued by NWS Upton, NY

Current Version | Previous Version | Text Only | Print | Product List | Glossary Off
Versions: 1 2 3 4 5 6 7 8 9 10 11 12 13 14 15 16 17 18 19 20 21 22 23 24 25 26 27
000 ASUS41 KOKX 221405 RWROKX Regional Weather Roundup National Weather Service New York NY 1000 AM EDT SUN APR 22 2018 Note: "FAIR" indicates few or no clouds below 12,000 feet with no significant weather and/or obstructions to visibility. NYZ071-072-176-178-NJZ106-104-221500- New York City Metro Area CITY SKY/WX TMP DP RH WIND PRES REMARKS Central Park FAIR 54 20 26 VRB3 30.44S Bronx Bot Gard N/A 55 21 26 W6 30.44R Bronx Lehman C N/A 54 21 28 NW3 N/A LaGuardia Arpt FAIR 54 23 30 NW8 30.41S Queens College N/A 54 18 24 NW6 N/A Kennedy Intl FAIR 56 18 22 N7 30.43R Breezy Point N/A 50 N/A N/A W8 N/A Brooklyn Coll N/A 54 19 26 W8 N/A Staten Island N/A 54 19 26 N3 N/A Newark/Liberty FAIR 58 30 34 VRB5 30.42S Teterboro FAIR 55 21 26 CALM 30.41S $$ NYZ177-179-078>081-221500- Long Island New York CITY SKY/WX TMP DP RH WIND PRES REMARKS Jones Beach N/A 54 N/A N/A NW2 N/A Wantagh N/A 55 21 26 NW7 N/A Hempstead N/A 54 23 30 N3 30.43S Matinecock Pt N/A 48 N/A N/A SW5 N/A Farmingdale FAIR 55 23 28 NE8 30.41S MacArthur/ISP FAIR 55 20 25 N9 30.40S Stony Brook N/A 50 27 40 N5 N/A Shirley FAIR 56 21 25 N12 30.41R Mt Sinai Harb N/A N/A N/A N/A NW6 N/A Westhampton FAIR 54 20 26 N12 30.41R East Hampton FAIR 52 21 29 N7 30.38F Southold N/A 48 30 49 NW7 N/A Montauk N/A 50 23 34 NW8 30.40S $$ NYZ052-065-067-221500- Hudson Valley CITY SKY/WX TMP DP RH WIND PRES REMARKS White Plains FAIR 52 19 27 NW6 30.40S Larchmont Harb N/A 46 N/A N/A SE6 N/A Croton On Huds N/A 46 N/A N/A MISG N/A Somers N/A 52 19 28 NW6 N/A Brewster N/A 52 19 28 NE7 N/A Newburgh SUNNY 50 23 34 CALM 30.42S Montgomery FAIR 54 24 31 VRB5 30.40S Otisville N/A 52 18 25 N6 N/A Warwick N/A 50 25 37 W6 N/A Suffern N/A 52 18 25 N6 N/A Poughkeepsie FAIR 50 25 37 CALM 30.41S Albany FAIR 50 22 33 VRB3 30.42S $$ NJZ001-105-106-008-010-013-015-019>022-104-221500- New Jersey CITY SKY/WX TMP DP RH WIND PRES REMARKS Newark/Liberty FAIR 58 30 34 VRB5 30.42S Teterboro FAIR 55 21 26 CALM 30.41S Caldwell FAIR 55 21 26 VRB6 30.42F Somerville FAIR 55 22 27 VRB6 30.41F Linden FAIR 56 23 27 CALM 30.42S Perth Amboy N/A 52 N/A N/A W6 N/A Sussex FAIR 53 25 33 CALM 30.41F Andover N/A 53 24 32 N5 30.42S Trenton FAIR 57 22 25 N5 30.43S Millville FAIR 55 22 27 E7 30.43S Atlantic City FAIR 57 24 28 VRB6 30.43S Wrightstown FAIR 58 20 23 CALM 30.41 Toms River FAIR 56 20 24 CALM 30.43S Belmar FAIR 58 19 22 W7 30.43S $$ PAZ047>061-062-071-221500- Eastern Pennsylvania CITY SKY/WX TMP DP RH WIND PRES REMARKS Philadelphia FAIR 56 22 26 E6 30.44S Allentown FAIR 53 23 31 CALM 30.44S Scranton FAIR 48 23 37 VRB3 30.44S $$ CTZ002-004>006-009-010-012-RIZ004-006-007-MAZ004-011-015-221500- Southern New England In CT CITY SKY/WX TMP DP RH WIND PRES REMARKS Bradley Intl FAIR 53 21 28 VRB5 30.38F Hartford FAIR 52 25 35 CALM 30.40S Danbury FAIR 52 21 29 N6 30.41S Wtrbury/Oxford FAIR 50 20 30 VRB7 30.39S Norwalk Harbor N/A 48 N/A N/A S6 N/A Bridgeport FAIR 55 14 19 N7 30.40S Meriden FAIR 55 18 23 NW8 30.39F New Haven FAIR 55 19 24 NW6 30.39F Chester FAIR 55 14 19 N9 30.38S Groton FAIR 56 20 24 NW9 30.37F Willimantic FAIR 54 18 24 N14 30.38F In RI CITY SKY/WX TMP DP RH WIND PRES REMARKS Providence FAIR 55 18 23 NW9 30.37S Block Island FAIR 52 26 36 NW7 30.38S Westerly FAIR 55 17 22 NW10G16 30.38S In MA CITY SKY/WX TMP DP RH WIND PRES REMARKS Boston FAIR 53 20 27 W13 30.35S Worcester FAIR 48 17 29 W12G20 30.35S Westfield FAIR 54 18 24 N12G18 30.37F Provincetown FAIR 47 33 58 NW10 30.35S Nantucket FAIR 52 24 33 NW12 30.35S $$ ANZ330-335-338-340-345-350-353-355-221500- Coastal Marine Observations STATION/POSITION TIME SKY/WX TEMP WIND PRES VSBY WAVE AIR SEA DIR/SP/G HT/PER (UTC) (F) (DEG/KT/KT) (MB) (MI) (FT/S) NY Harb Entrance 1340 46 45 310/ 6/ 8 1030.3 20 S Fire Island 1350 45 43 320/ 4/ 4 1029.9 1/ 5 23 SSW Montauk P 1350 44 43 300/ 6/ 6 1029.2 2/ 5 15 E Barnegat Li 1330 45 N/A 1/14 Hudson Canyon 1250 45 44 350/ 10/ 12 1028.9 2/ 5 Kings Point 1330 48 45 230/ 1/ 2 1031.0 Execution Rocks NOT AVBL Western LI Sound NOT AVBL Central LI Sound 1345 44 280/ 8/ 8 N/A 0 Robbins Reef 1330 51 280/ 4/ 6 1030.8 $$ >>>>>>>>>>>>>>>>>>>>>>>>>>>> KEY <<<<<<<<<<<<<<<<<<<<<<<<<<< > < > SKY/WX - Sky Condition/Present Weather < > TMP - Temperature in Fahrenheit < > DP - Dew Point in Fahrenheit < > RH - Relative Humidity in Percent < > WIND - Direction (from) and Speed in MPH < > PRES - Mean Sea Level Pressure (inches of Hg) < > WCI - Wind Chill Index < > VSB - Visibility in Miles < > HX - Heat Index < > TC - Temperature in Celsius < > VRB - Varibale Wind Direction < > < >>>>>>>>>>>>>>>>>>>>>>>>>>>> KEY <<<<<<<<<<<<<<<<<<<<<<<<<<<

USA.gov is the U.S. government's official web portal to all federal, state and local government web resources and services.